This is the latest recevied weather packets stored in our database for station/object KD9IXX-13. If no packets are shown the sender has not sent any weather packets the latest 10 day(s).
| Time | Temp. | Humidity | Pressure | Rain* | Wind** | Luminosity | Snow |
|---|---|---|---|---|---|---|---|
| 1777434302 | 11.67° C | 92% | 1015 hPa | 0 mm | - | 0 W/m² | - |
| 1777434002 | 11.67° C | 91% | 1014.6 hPa | 0 mm | - | 0 W/m² | - |
| 1777433702 | 11.67° C | 91% | 1014.9 hPa | 0 mm | - | 0 W/m² | - |
| 1777433402 | 11.67° C | 91% | 1014.9 hPa | 0 mm | - | 0 W/m² | - |
| 1777433103 | 11.67° C | 91% | 1015.2 hPa | 0 mm | - | 0 W/m² | - |
| 1777432802 | 11.67° C | 91% | 1015.1 hPa | 0 mm | - | 0 W/m² | - |
| 1777432502 | 11.67° C | 90% | 1015.1 hPa | 0 mm | - | 0 W/m² | - |
| 1777432202 | 12.22° C | 90% | 1014.9 hPa | 0 mm | - | 0 W/m² | - |
| 1777431902 | 12.22° C | 90% | 1015.1 hPa | 0 mm | - | 0 W/m² | - |
| 1777431602 | 12.22° C | 90% | 1015.2 hPa | 0 mm | - | 0 W/m² | - |
| 1777431303 | 12.22° C | 90% | 1015.1 hPa | 0 mm | - | 0 W/m² | - |
| 1777431002 | 12.22° C | 90% | 1015 hPa | 0 mm | - | 0 W/m² | - |
| 1777430702 | 12.22° C | 89% | 1015.3 hPa | 0 mm | - | 0 W/m² | - |
| 1777430102 | 12.22° C | 89% | 1015.1 hPa | 0 mm | - | 0 W/m² | - |
| 1777429802 | 11.67° C | 89% | 1015.3 hPa | 0 mm | - | 0 W/m² | - |
| 1777429502 | 11.67° C | 90% | 1015.4 hPa | 0 mm | - | 0 W/m² | - |
| 1777429202 | 11.67° C | 90% | 1015.3 hPa | 0 mm | - | 0 W/m² | - |
| 1777428902 | 11.67° C | 92% | 1015.2 hPa | 0 mm | - | 0 W/m² | - |
| 1777428602 | 11.11° C | 93% | 1015 hPa | 0 mm | - | 0 W/m² | - |
| 1777428302 | 10.56° C | 91% | 1015 hPa | 0 mm | - | 0 W/m² | - |
| 1777428002 | 11.11° C | 90% | 1015.1 hPa | 0 mm | - | 0 W/m² | - |
| 1777427702 | 11.67° C | 90% | 1014.7 hPa | 0 mm | - | 0 W/m² | - |
| 1777427402 | 12.22° C | 90% | 1014.7 hPa | 0 mm | - | 0 W/m² | - |
| 1777427102 | 12.22° C | 89% | 1014.7 hPa | 0 mm | - | 0 W/m² | - |
| 1777426803 | 12.22° C | 88% | 1014.6 hPa | 0 mm | - | 0 W/m² | - |
* Rain latest hour (hover to see other rain measurements)
** Current wind speed in m/s (hover to see current wind gust speed)